sat.trackr.live / text

‹ back to catalog

ONEWEB-0021

NORAD 45134 · 2020-008D

PAYLOAD ACTIVE UNKNOWN

§ Identity

Operator
Country
UK
Launch date
2020-02-06
Launch site
TYMSC
Launch vehicle
Mass (kg)
RCS (m²)

Purposes: comms

External: N2YO · Heavens-Above · Gunter

§ Orbital elements

Epoch: 2026-05-25T03:41:36.770784Z

Period
109.89 min
Inclination
87.8853°
Eccentricity
0.0001868
Mean motion
13.10374967 rev/d
Perigee alt
1,220.3 km
Apogee alt
1,223.1 km
Semi-major
7,599.8 km
B*
1.7439e-3
RAAN
40.8686°
Arg perigee
76.0417°
Mean anomaly
284.0918°
Rev number
30,563

§ Raw data

ONEWEB-00211 45134U 20008D   26145.15389781  .00000621  00000+0  17439-2 0  99912 45134  87.8853  40.8686 0001868  76.0417 284.0918 13.10374967305638

JSON: /api/v1/satellites/45134 · /tle

For live sub-satellite position, see the globe view (requires WebGL).

§ Visibility from observer

Set your observer location to see the next 7 days of passes ≥ 10°. The values pass through the URL so the page stays shareable.

No JS? Fill the form by hand. The geolocation button needs JavaScript.